Weather History for Chignik, AK

Change the Weather History Date:

Thursday, January 23, 2014

  Actual Average Record
Temperature  
Mean Temperature 43 °F -  
Max Temperature 44 °F 32 °F 44 °F (2000)
Min Temperature 42 °F 25 °F 3 °F (2012)
Degree Days  
Heating Degree Days 22    
Moisture  
Dew Point 40 °F    
Average Humidity 88    
Maximum Humidity 100    
Minimum Humidity 71    
Precipitation  
Precipitation 1.59 in - - ()
Sea Level Pressure  
Sea Level Pressure 29.18 in    
Wind  
Wind Speed 18 mph (SSE)    
Max Wind Speed 28 mph    
Max Gust Speed 46 mph    
Visibility 6 miles    
Events      
Averages and records for this station are not official NWS values.
T = Trace of Precipitation, MM = Missing Value Source: NWS Daily Summary

Daily Weather History Graph

Daily Weather History Graph

Search for Another Location

Airport:

Trip Planner

Search our weather history database for the weather conditions in past years. The results will help you decide how hot, cold, wet, or windy it might be!

Date:

Astronomy

Jan. 23, 2014 Rise Set
Actual Time 9:44 AM AKST 5:46 PM AKST
Civil Twilight 9:01 AM AKST 6:29 PM AKST
Nautical Twilight 8:15 AM AKST 7:16 PM AKST
Astronomical Twilight 7:30 AM AKST 8:00 PM AKST
Moon 1:54 AM AKST (1/23) 11:58 AM AKST (1/23)
Length of Visible Light 9h 28m
Length of Day
8h 01m
Waning Gibbous, 54% of the Moon is Illuminated
Jan 23
Waning Gibbous
Jan 23
Last Quarter
Jan 30
New
Feb 6
First Quarter
Feb 14
Full

Hourly Weather History & Observations

Time (AKST) Temp. Windchill Dew Point Humidity Pressure Visibility Wind Dir Wind Speed Gust Speed Precip Events Conditions
12:16 AM 42.8 °F 35.1 °F 42.8 °F 100% 29.06 in 5.0 mi SE 16.1 mph 24.2 mph N/A   Overcast
12:36 AM 42.8 °F 35.4 °F 42.8 °F 100% 29.06 in 7.0 mi SE 15.0 mph 28.8 mph N/A   Overcast
12:56 AM 42.8 °F 35.4 °F 42.8 °F 100% 29.06 in 10.0 mi SE 15.0 mph 24.2 mph N/A   Overcast
1:16 AM 44.6 °F 37.4 °F 42.8 °F 93% 29.06 in 10.0 mi ESE 16.1 mph 25.3 mph N/A   Overcast
1:36 AM 44.6 °F 38.4 °F 42.8 °F 93% 29.06 in 10.0 mi ESE 12.7 mph 25.3 mph N/A   Overcast
1:56 AM 44.6 °F 36.6 °F 42.8 °F 93% 29.06 in 10.0 mi ESE 19.6 mph 26.5 mph N/A   Overcast
2:16 AM 42.8 °F 35.4 °F 42.8 °F 100% 29.06 in 10.0 mi ESE 15.0 mph 26.5 mph N/A   Overcast
2:36 AM 44.6 °F 40.2 °F 42.8 °F 93% 29.05 in 5.0 mi ESE 8.1 mph 17.3 mph 0.02 in   Overcast
2:56 AM 44.6 °F 36.6 °F 42.8 °F 93% 29.05 in 8.0 mi ESE 19.6 mph 31.1 mph 0.08 in   Overcast
3:16 AM 44.6 °F 37.8 °F 41.0 °F 87% 29.04 in 10.0 mi SE 15.0 mph 23.0 mph 0.08 in   Overcast
3:36 AM 44.6 °F 38.1 °F 42.8 °F 93% 29.03 in 8.0 mi SE 13.8 mph 25.3 mph 0.17 in   Overcast
3:56 AM 42.8 °F 35.1 °F 42.8 °F 100% 29.03 in 6.0 mi SE 16.1 mph 26.5 mph 0.26 in   Overcast
4:16 AM 44.6 °F 37.2 °F 42.8 °F 93% 29.02 in 7.0 mi ESE 17.3 mph 28.8 mph 0.09 in   Overcast
4:36 AM 44.6 °F 36.9 °F 42.8 °F 93% 29.03 in 4.0 mi SSE 18.4 mph 29.9 mph 0.15 in   Overcast
4:56 AM 44.6 °F 35.7 °F 42.8 °F 93% 29.02 in 4.0 mi SE 24.2 mph 39.1 mph 0.22 in   Overcast
5:16 AM 44.6 °F 35.9 °F 42.8 °F 93% 29.02 in 4.0 mi SSE 23.0 mph 36.8 mph 0.02 in   Overcast
5:36 AM 44.6 °F 35.5 °F 42.8 °F 93% 29.03 in 4.0 mi SSE 25.3 mph 34.5 mph 0.07 in   Overcast
5:56 AM 44.6 °F 35.3 °F 42.8 °F 93% 29.04 in 3.0 mi SSE 26.5 mph 36.8 mph 0.13 in   Mostly Cloudy
6:16 AM 44.6 °F 36.9 °F 42.8 °F 93% 29.05 in 3.0 mi SE 18.4 mph 38.0 mph 0.06 in   Overcast
6:36 AM 44.6 °F 36.1 °F 42.8 °F 93% 29.06 in 4.0 mi SSE 21.9 mph 39.1 mph 0.14 in   Mostly Cloudy
6:56 AM 42.8 °F 34.5 °F 42.8 °F 100% 29.07 in 4.0 mi SE 18.4 mph 34.5 mph 0.21 in   Mostly Cloudy
7:16 AM 42.8 °F 34.0 °F 42.8 °F 100% 29.07 in 4.0 mi SSE 20.7 mph 34.5 mph 0.08 in   Scattered Clouds
7:36 AM 42.8 °F 34.0 °F 42.8 °F 100% 29.08 in 4.0 mi SSE 20.7 mph 31.1 mph 0.16 in   Scattered Clouds
7:56 AM 42.8 °F 33.8 °F 42.8 °F 100% 29.09 in 3.0 mi SE 21.9 mph 31.1 mph 0.22 in   Clear
8:16 AM 42.8 °F 33.3 °F 42.8 °F 100% 29.10 in 4.0 mi SSE 24.2 mph 35.7 mph 0.07 in   Partly Cloudy
8:36 AM 42.8 °F 35.1 °F 42.8 °F 100% 29.10 in 4.0 mi SSE 16.1 mph 32.2 mph 0.12 in   Clear
8:56 AM 42.8 °F 33.5 °F 41.0 °F 93% 29.11 in 4.0 mi SE 23.0 mph 36.8 mph 0.16 in   Partly Cloudy
9:16 AM 42.8 °F 33.3 °F 41.0 °F 93% 29.13 in 3.0 mi South 24.2 mph 38.0 mph 0.04 in   Partly Cloudy
9:36 AM 42.8 °F 32.9 °F 41.0 °F 93% 29.15 in 4.0 mi SSE 26.5 mph 35.7 mph 0.08 in   Scattered Clouds
9:56 AM 42.8 °F 33.5 °F 41.0 °F 93% 29.16 in 2.5 mi SSE 23.0 mph 32.2 mph 0.10 in   Scattered Clouds
10:16 AM 42.8 °F 33.5 °F 39.2 °F 87% 29.17 in 2.5 mi SSE 23.0 mph 40.3 mph 0.02 in   Scattered Clouds
10:36 AM 42.8 °F 33.3 °F 39.2 °F 87% 29.18 in 3.0 mi South 24.2 mph 34.5 mph 0.03 in   Mostly Cloudy
10:56 AM 44.6 °F 35.1 °F 39.2 °F 81% 29.19 in 2.5 mi South 27.6 mph 44.9 mph 0.04 in   Overcast
11:16 AM 44.6 °F 36.1 °F 39.2 °F 81% 29.20 in 3.0 mi SSE 21.9 mph 32.2 mph N/A   Overcast
11:36 AM 44.6 °F 36.1 °F 39.2 °F 81% 29.21 in 3.0 mi SSE 21.9 mph 34.5 mph 0.01 in   Overcast
11:56 AM 44.6 °F 36.1 °F 39.2 °F 81% 29.23 in 4.0 mi SSE 21.9 mph 32.2 mph 0.01 in   Overcast
12:16 PM 44.6 °F 36.1 °F 39.2 °F 81% 29.23 in 3.0 mi SE 21.9 mph 33.4 mph 0.01 in   Overcast
12:36 PM 44.6 °F 38.1 °F 39.2 °F 81% 29.24 in 2.5 mi SSE 13.8 mph 40.3 mph 0.01 in   Overcast
12:56 PM 44.6 °F 37.4 °F 39.2 °F 81% 29.23 in 3.0 mi South 16.1 mph 29.9 mph 0.01 in   Overcast
1:16 PM 44.6 °F 37.8 °F 39.2 °F 81% 29.24 in 10.0 mi SSE 15.0 mph 39.1 mph 0.01 in   Overcast
1:36 PM 42.8 °F 34.3 °F 39.2 °F 87% 29.25 in 3.0 mi SE 19.6 mph 29.9 mph 0.01 in   Overcast
1:56 PM 44.6 °F 38.4 °F 39.2 °F 81% 29.25 in 8.0 mi SE 12.7 mph 32.2 mph 0.01 in   Overcast
2:16 PM 44.6 °F 36.9 °F 39.2 °F 81% 29.25 in 6.0 mi SSE 18.4 mph 25.3 mph N/A   Overcast
2:36 PM 44.6 °F 36.1 °F 37.4 °F 76% 29.24 in 9.0 mi South 21.9 mph 33.4 mph 0.01 in   Overcast
2:56 PM 42.8 °F 35.1 °F 39.2 °F 87% 29.25 in 3.0 mi SSE 16.1 mph 27.6 mph 0.01 in   Overcast
3:16 PM 42.8 °F 35.1 °F 39.2 °F 87% 29.24 in 7.0 mi South 16.1 mph 28.8 mph N/A   Overcast
3:36 PM 42.8 °F 33.3 °F 39.2 °F 87% 29.25 in 7.0 mi SSE 24.2 mph 29.9 mph N/A   Overcast
3:56 PM 42.8 °F 34.8 °F 39.2 °F 87% 29.26 in 4.0 mi SE 17.3 mph 27.6 mph N/A   Overcast
4:16 PM 42.8 °F 34.0 °F 39.2 °F 87% 29.26 in 4.0 mi SE 20.7 mph 29.9 mph N/A   Overcast
4:36 PM 42.8 °F 35.4 °F 39.2 °F 87% 29.27 in 3.0 mi ESE 15.0 mph 26.5 mph 0.01 in   Overcast
4:56 PM 42.8 °F 33.8 °F 39.2 °F 87% 29.27 in 3.0 mi SSE 21.9 mph 29.9 mph 0.02 in   Overcast
5:16 PM 42.8 °F 35.8 °F 39.2 °F 87% 29.27 in 3.0 mi SE 13.8 mph 29.9 mph 0.01 in   Overcast
5:36 PM 42.8 °F 33.5 °F 39.2 °F 87% 29.27 in 3.0 mi SSE 23.0 mph 29.9 mph 0.03 in   Overcast
5:56 PM 42.8 °F 33.5 °F 39.2 °F 87% 29.27 in 4.0 mi ESE 23.0 mph 46.0 mph 0.04 in   Overcast
6:16 PM 42.8 °F 35.1 °F 39.2 °F 87% 29.28 in 4.0 mi SSE 16.1 mph 27.6 mph N/A   Mostly Cloudy
6:36 PM 42.8 °F 33.5 °F 39.2 °F 87% 29.27 in 5.0 mi SE 23.0 mph 33.4 mph 0.01 in   Mostly Cloudy
6:56 PM 42.8 °F 34.0 °F 39.2 °F 87% 29.28 in 5.0 mi SSE 20.7 mph 28.8 mph 0.01 in   Overcast
7:16 PM 42.8 °F 34.0 °F 39.2 °F 87% 29.28 in 5.0 mi ESE 20.7 mph 31.1 mph 0.03 in   Mostly Cloudy
7:36 PM 42.8 °F 33.5 °F 39.2 °F 87% 29.28 in 7.0 mi SE 23.0 mph 35.7 mph 0.03 in   Overcast
7:56 PM 42.8 °F 34.8 °F 39.2 °F 87% 29.28 in 5.0 mi SE 17.3 mph 34.5 mph 0.03 in   Overcast
8:16 PM 42.8 °F 34.5 °F 37.4 °F 81% 29.28 in 10.0 mi SSE 18.4 mph 34.5 mph N/A   Overcast
8:36 PM 42.8 °F 35.1 °F 37.4 °F 81% 29.28 in 9.0 mi SE 16.1 mph 26.5 mph N/A   Overcast
8:56 PM 44.6 °F 37.2 °F 35.6 °F 71% 29.28 in 10.0 mi SSE 17.3 mph 27.6 mph N/A   Mostly Cloudy
9:16 PM 42.8 °F 34.5 °F 39.2 °F 87% 29.28 in 7.0 mi SSE 18.4 mph 26.5 mph 0.01 in   Overcast
9:36 PM 42.8 °F 34.5 °F 39.2 °F 87% 29.27 in 8.0 mi SSE 18.4 mph 33.4 mph 0.02 in   Overcast
9:56 PM 42.8 °F 32.7 °F 35.6 °F 76% 29.28 in 10.0 mi SSE 27.6 mph 39.1 mph 0.02 in   Overcast
10:16 PM 42.8 °F 35.8 °F 35.6 °F 76% 29.28 in 7.0 mi SSE 13.8 mph 32.2 mph N/A   Overcast
10:36 PM 42.8 °F 34.0 °F 35.6 °F 76% 29.28 in 10.0 mi South 20.7 mph 39.1 mph N/A   Overcast
10:56 PM 42.8 °F 34.8 °F 35.6 °F 76% 29.29 in 9.0 mi SSE 17.3 mph 39.1 mph N/A   Overcast
11:16 PM 42.8 °F 35.4 °F 35.6 °F 76% 29.29 in 9.0 mi SSE 15.0 mph 34.5 mph N/A   Overcast
11:36 PM 42.8 °F 33.8 °F 35.6 °F 76% 29.31 in 8.0 mi SSE 21.9 mph 38.0 mph 0.01 in   Overcast
11:56 PM 42.8 °F 33.5 °F 35.6 °F 76% 29.32 in 9.0 mi SSE 23.0 mph 33.4 mph 0.01 in   Overcast